{"data":{"norad_id":50831,"epoch":"2026-09-19T22:44:17.620224Z","epoch_age_seconds":96019,"freshness":"FRESH","line1":"1 50831U 22001AE  26262.94742616  .00021430  00000+0  65398-3 0  9992","line2":"2 50831  53.1601   5.2915 0001991 356.1487   3.9499 15.33890809259894","mean_motion":15.33890809,"eccentricity":0.0001991,"inclination_deg":53.1601,"raan_deg":5.2915,"arg_perigee_deg":356.1487,"mean_anomaly_deg":3.9499,"bstar":0.00065398,"rev_number":25989,"period_min":93.878911820248,"perigee_km":462.85476911685,"apogee_km":465.57939451223,"semimajor_km":6842.3540818145,"source":"CELESTRAK","updated_at":"2026-09-20T09:00:39.580001Z"}}